Weather History for Rankin Inlet, NU

Change the Weather History Date:

Tuesday, August 27, 2013

  Actual Average Record
Temperature  
Mean Temperature 42 °F -  
Max Temperature 51 °F 43 °F 66 °F (2005)
Min Temperature 33 °F 35 °F 33 °F (2004)
Degree Days  
Heating Degree Days 23    
Moisture  
Dew Point 35 °F    
Average Humidity 74    
Maximum Humidity 93    
Minimum Humidity 47    
Precipitation  
Precipitation 0.00 in - - ()
Sea Level Pressure  
Sea Level Pressure 30.14 in    
Wind  
Wind Speed 9 mph ()    
Max Wind Speed 28 mph    
Max Gust Speed 36 mph    
Visibility 15.0 miles    
Events      
Averages and records for this station are not official NWS values.
T = Trace of Precipitation, MM = Missing Value Source: Averaged Metar Reports

Daily Weather History Graph

Daily Weather History Graph

Search for Another Location

Airport:

Trip Planner

Search our weather history database for the weather conditions in past years. The results will help you decide how hot, cold, wet, or windy it might be!

Date:

Astronomy

Aug. 27, 2013 Rise Set
Actual Time 5:42 AM CDT 8:35 PM CDT
Civil Twilight 4:50 AM CDT 9:27 PM CDT
Nautical Twilight 3:36 AM CDT 10:39 PM CDT
Astronomical Twilight 1:42 AM CDT 12:37 AM CDT
Moon 10:00 PM CDT (8/27) 3:08 PM CDT (8/27)
Length of Visible Light 16h 37m
Length of Day
14h 53m
Waning Gibbous, 57% of the Moon is Illuminated
Aug 27
Waning Gibbous
Aug 28
Last Quarter
Sep 5
New
Sep 12
First Quarter
Sep 19
Full

Hourly Weather History & Observations

Time (CDT) Temp. Windchill Dew Point Humidity Pressure Visibility Wind Dir Wind Speed Gust Speed Precip Events Conditions
12:00 AM 37.4 °F 30.8 °F 30.2 °F 75% 30.16 in 15.0 mi WNW 9.2 mph - N/A   Clear
1:00 AM 38 °F - 34 °F 81% 30.17 in 15 mi North 2.3 mph - -  
1:00 AM 37.4 °F - 33.8 °F 87% 30.17 in 15.0 mi North 2.3 mph - N/A   Clear
2:00 AM 37.4 °F 30.8 °F 32.0 °F 81% 30.17 in 15.0 mi NW 9.2 mph - N/A   Clear
3:00 AM 35.6 °F 29.2 °F 32.0 °F 87% 30.17 in 15.0 mi WNW 8.1 mph - N/A   Clear
4:00 AM 35.6 °F 30.7 °F 32.0 °F 87% 30.18 in 15.0 mi WNW 5.8 mph - N/A   Clear
5:00 AM 33.8 °F 27.7 °F 30.2 °F 87% 30.19 in 15.0 mi NNW 6.9 mph - N/A   Clear
6:00 AM 33.8 °F 27.7 °F 32.0 °F 93% 30.19 in 15.0 mi NNW 6.9 mph - N/A   Clear
7:00 AM 37 °F - 35 °F 89% 30.20 in 15 mi NNW 4.6 mph - -   Scattered Clouds
7:00 AM 37.4 °F 33.8 °F 35.6 °F 93% 30.20 in 15.0 mi NNW 4.6 mph - N/A   Partly Cloudy
8:00 AM 41.0 °F 39.0 °F 35.6 °F 81% 30.19 in 15.0 mi North 3.5 mph - N/A   Partly Cloudy
9:00 AM 41.0 °F - 33.8 °F 76% 30.20 in 15.0 mi Calm Calm - N/A   Mostly Cloudy
10:00 AM 44.6 °F 43.1 °F 30.2 °F 57% 30.19 in 15.0 mi SW 3.5 mph - N/A   Mostly Cloudy
11:00 AM 44.6 °F 41.4 °F 30.2 °F 57% 30.19 in 15.0 mi South 5.8 mph - N/A   Scattered Clouds
12:00 PM 48.2 °F - 35.6 °F 62% 30.18 in 15.0 mi South 6.9 mph - N/A   Scattered Clouds
1:00 PM 48 °F - 35 °F 50% 30.18 in 15 mi South 17.9 mph - -   Scattered Clouds
1:00 PM 48.2 °F - 35.6 °F 62% 30.18 in 15.0 mi South 9.2 mph - N/A   Scattered Clouds
2:00 PM 51.8 °F - 32.0 °F 47% 30.15 in 15.0 mi South 15.0 mph - N/A   Scattered Clouds
3:00 PM 50.0 °F - 35.6 °F 58% 30.13 in 15.0 mi South 19.6 mph - N/A   Mostly Cloudy
4:00 PM 50.0 °F - 35.6 °F 58% 30.11 in 15.0 mi South 19.6 mph - N/A   Mostly Cloudy
5:00 PM 48.2 °F - 37.4 °F 66% 30.10 in 15.0 mi South 21.9 mph - N/A   Mostly Cloudy
6:00 PM 48.2 °F - 37.4 °F 66% 30.08 in 15.0 mi South 20.7 mph 27.6 mph N/A   Mostly Cloudy
7:00 PM 46 °F - 37 °F 63% 30.07 in 15 mi SSW 24.2 mph - -   Clear
7:00 PM 46.4 °F 38.1 °F 37.4 °F 71% 30.07 in 15.0 mi South 24.2 mph 31.1 mph N/A   Mostly Cloudy
8:00 PM 44.6 °F 35.1 °F 37.4 °F 76% 30.06 in 15.0 mi SSW 27.6 mph 35.7 mph N/A   Mostly Cloudy
9:00 PM 44.6 °F 35.3 °F 37.4 °F 76% 30.05 in 15.0 mi SSW 26.5 mph - N/A   Mostly Cloudy
10:00 PM 42.8 °F 33.3 °F 39.2 °F 87% 30.04 in 15.0 mi SSW 24.2 mph 31.1 mph N/A   Mostly Cloudy
11:00 PM 42.8 °F 33.1 °F 39.2 °F 87% 30.02 in 15.0 mi SSW 25.3 mph 31.1 mph N/A   Mostly Cloudy